User: anonymous   Login
Location: Stamford Observatory
(41.1241°N, 73.5498°W)
Time: 19:27:00
(UTC-04:00)
Language:

IRS-P3 - Orbit

View from above orbital plane
View from above orbital plane
View from above satellite
View from above satellite

Ground track
Ground track

The orbit data is extracted from the following two-line orbital elements,

1 23827U 96017A   15245.83332593 +.00000052 +00000-0 +42792-4 0  9993
2 23827 098.6607 181.3816 0004321 116.8018 243.3602 14.22383174009546
Epoch (UTC): 02 September 2015 19:59:59
Eccentricity: 0.0004321
inclination: 98.6607°
perigee height: 814 km
apogee height: 820 km
right ascension of ascending node: 181.3816°
argument of perigee: 116.8018°
revolutions per day: 14.22383174
mean anomaly at epoch: 243.3602°
orbit number at epoch: 954

The dashed part of the orbit path shows where the satellite is in the earth's shadow,  

DLR